Theta_e
310 307 308 309 307 308 307 306 305 305 307 307 309 308 308 309 310 310 311 311 311 312 315 314 314 315 315 315 315 316 316 315 314 314 314 312 313 311 309 307 306 304 303 301
307 307 307 307 306 307 307 308 308 308 308 307 307 309 309 309 309 310 311 311 312 312 313 314 314 314 314 314 314 314 314 314 315 314 314 313 313 312 310 309 307 304 303 301
308 309 308 308 308 307 306 307 308 307 306 306 306 309 308 308 308 310 310 312 312 312 314 315 315 314 313 313 314 314 314 313 314 314 313 312 310 309 308 308 306 305 302 301
307 307 308 307 308 307 309 306 307 307 308 309 308 312 308 309 308 307 310 312 314 314 314 314 314 314 313 313 313 314 313 313 312 313 313 312 312 312 312 311 309 307 304 303
308 307 308 308 309 307 309 308 308 308 307 307 306 308 310 307 307 308 307 311 314 314 314 315 315 314 313 313 313 313 313 312 313 313 313 312 311 311 310 310 309 306 305 304
307 307 307 307 307 306 307 309 306 304 305 309 308 308 315 308 308 309 307 312 313 315 315 314 313 313 314 313 312 313 313 313 312 312 311 311 311 310 310 309 308 307 305 304
306 307 307 307 309 307 308 308 310 309 309 313 306 308 313 309 308 307 309 310 313 314 313 312 313 313 313 312 311 310 311 312 312 311 310 309 309 308 309 309 309 308 306 305
310 315 307 305 308 309 306 308 311 313 313 315 305 307 313 308 307 309 309 311 312 312 311 312 312 312 313 313 311 311 310 309 310 310 309 309 308 308 308 308 308 308 308 307
307 309 307 305 306 307 307 308 308 310 308 309 311 308 309 312 312 309 307 308 310 310 310 312 313 312 312 312 311 311 310 309 308 309 308 307 307 308 308 308 307 307 306 306
309 311 307 306 305 305 306 306 309 306 311 313 310 311 312 311 311 310 307 308 311 311 312 312 313 313 311 312 312 312 311 310 307 307 307 307 306 306 306 307 307 307 306 305
307 310 313 307 305 310 306 306 306 307 311 315 316 314 311 312 311 309 307 308 309 310 311 311 310 309 310 309 309 308 307 307 308 307 307 307 307 305 306 307 307 307 306 305
310 312 314 312 310 307 307 310 310 312 315 312 312 313 311 310 311 310 310 309 309 309 305 307 307 307 308 308 309 310 309 308 305 304 304 305 307 306 305 307 307 307 306 305
311 311 314 314 310 307 309 309 309 310 311 312 314 313 310 309 309 309 309 305 304 302 301 301 301 300 300 302 305 307 308 308 308 305 303 303 302 301 304 306 307 306 306 306
309 310 313 313 313 310 311 310 307 307 309 312 312 312 310 310 303 301 300 301 298 297 296 296 297 297 297 295 295 300 303 304 305 306 305 304 304 306 306 303 305 306 305 305
305 307 308 307 303 303 304 303 303 302 302 304 304 304 306 298 296 296 297 296 295 295 294 294 293 293 293 293 293 294 297 301 302 303 304 305 307 306 305 304 304 303 303 304
297 298 299 298 299 299 298 296 296 297 298 299 302 305 295 294 293 293 294 293 292 291 291 292 291 291 291 290 292 291 293 295 298 301 301 302 302 305 305 303 303 302 303 302
295 294 287 297 296 293 292 294 295 296 297 295 299 294 293 293 292 291 293 292 291 290 290 290 290 290 290 289 290 290 291 292 295 298 299 299 300 301 304 304 302 302 303 302
291 286 284 288 285 289 293 295 294 294 292 293 293 292 292 293 292 290 291 293 289 289 289 289 288 288 289 289 289 288 290 291 291 294 297 299 296 297 299 300 302 301 301 301
293 293 287 290 289 294 297 292 289 289 289 289 291 292 292 292 291 289 289 288 289 289 288 287 287 287 287 287 287 286 287 289 290 291 293 297 298 296 294 295 298 297 297 299
289 293 295 286 291 288 288 288 289 289 287 286 288 288 290 291 288 288 288 288 288 287 286 286 286 286 286 286 285 285 285 286 286 288 290 291 295 298 297 293 292 293 295 294
278 275 280 275 278 283 288 289 288 283 285 287 288 288 291 286 287 288 288 288 287 286 285 285 284 284 285 285 284 284 284 284 284 285 287 287 290 293 297 298 292 290 291 292
284 279 277 274 275 283 288 288 287 288 288 288 288 288 290 289 288 287 287 287 286 286 285 285 283 284 284 284 283 283 282 282 284 284 285 286 286 289 293 296 297 291 290 289
287 286 283 283 284 287 289 289 289 288 288 288 288 289 290 287 286 286 285 284 284 283 283 283 282 281 282 282 282 281 282 282 283 282 283 284 284 287 289 291 294 295 291 288
287 288 288 288 289 289 289 289 289 288 288 288 288 288 286 285 284 283 282 282 281 281 280 280 280 281 282 281 280 279 280 280 280 281 281 282 282 283 286 289 290 292 293 291
289 287 286 288 288 288 288 288 288 288 288 287 286 285 283 281 281 280 280 280 279 278 278 277 277 277 278 279 280 278 276 277 279 279 279 280 281 281 282 285 288 289 291 292
290 289 289 289 289 289 289 289 287 287 285 283 282 282 281 278 278 277 276 276 276 276 275 275 275 274 274 272 272 274 274 273 273 276 278 278 278 279 280 281 283 287 288 288
Wind_Speed
3 3 8 16 11 2 2 5 7 8 12 6 18 19 17 25 27 31 38 41 40 48 52 48 42 42 44 44 46 47 45 43 45 48 49 52 51 51 50 48 46 45 43 41
4 6 14 4 4 7 8 10 14 11 16 4 14 24 20 17 22 35 34 39 45 41 42 44 41 39 39 37 37 41 46 48 47 50 51 52 52 54 51 50 49 48 47 44
8 6 4 5 4 9 5 7 13 11 7 6 10 14 7 7 20 33 36 43 42 42 44 43 42 40 36 33 33 34 39 45 48 50 51 54 54 53 54 54 53 53 49 45
6 3 5 4 8 8 10 12 14 9 4 4 5 17 5 8 9 6 30 35 37 41 41 38 40 40 36 31 27 31 33 36 41 48 52 55 57 59 57 56 55 52 50 49
8 6 5 5 9 7 11 3 4 2 4 6 3 3 4 5 6 14 10 25 23 29 26 30 35 43 42 38 35 29 31 35 39 45 50 53 55 56 56 56 53 52 51 50
7 1 5 8 6 8 2 3 5 4 2 5 9 6 31 4 6 3 5 15 27 25 27 30 25 30 35 35 28 28 30 34 39 43 48 51 53 56 55 55 50 50 51 50
2 5 4 4 3 1 3 4 4 4 1 10 7 6 26 8 11 8 14 21 20 25 19 16 27 35 38 39 31 26 33 35 36 41 46 48 49 50 53 51 49 48 49 52
3 17 7 5 8 9 7 9 5 7 12 18 5 8 18 11 14 22 20 20 19 12 10 17 30 35 37 40 37 31 31 32 35 40 40 41 42 45 48 49 49 48 47 47
4 10 2 5 2 5 4 5 5 5 3 3 12 16 16 27 25 14 12 7 13 13 14 33 41 35 35 32 30 30 25 28 31 32 33 38 40 42 45 46 48 46 43 42
4 13 5 2 1 4 7 1 2 1 4 17 10 19 16 19 18 14 7 11 19 22 35 40 41 44 34 28 32 34 31 27 26 26 28 32 36 40 43 42 45 45 43 43
1 4 16 3 8 17 2 4 4 3 6 10 12 9 15 22 19 13 10 4 15 24 31 35 31 23 22 24 27 29 30 32 30 26 25 29 32 38 40 41 40 42 41 42
9 5 12 30 21 3 5 8 9 9 9 12 19 21 17 15 19 20 28 28 29 30 17 14 12 14 19 24 25 27 30 30 30 33 32 32 29 32 38 39 39 40 41 42
2 4 4 4 7 2 4 4 11 20 21 26 22 15 7 11 14 23 26 30 29 32 31 30 28 28 29 28 26 25 28 31 31 28 31 35 34 35 36 36 37 41 42 43
3 5 10 14 15 10 17 8 10 11 10 14 15 17 13 17 14 19 30 25 25 28 29 33 33 32 32 35 36 30 27 27 27 28 29 30 33 35 40 41 40 40 41 43
2 7 6 11 11 10 16 21 22 24 25 25 26 27 16 10 13 16 14 22 27 31 35 35 36 37 40 39 41 38 33 33 34 32 31 30 30 31 37 45 46 46 46 44
3 4 8 13 20 17 18 23 29 27 29 27 21 16 7 9 16 24 16 21 27 30 32 34 37 37 40 41 41 44 39 37 35 36 36 31 30 29 28 32 43 47 48 46
3 3 1 17 20 9 12 17 18 13 7 4 5 5 9 7 14 17 18 14 25 28 30 32 35 35 40 39 42 44 42 40 36 35 36 34 26 29 32 32 38 43 48 46
8 3 2 6 4 4 7 6 8 7 5 5 1 5 6 10 17 19 18 16 27 28 32 34 36 38 38 38 38 40 41 41 38 37 35 34 34 24 26 32 37 41 46 47
13 8 3 3 7 11 13 5 3 4 4 3 4 8 12 13 16 12 14 23 27 28 30 34 31 32 35 36 38 40 39 39 39 38 37 35 35 36 24 25 29 36 41 43
5 8 5 3 2 5 4 4 10 3 4 7 9 6 8 9 6 11 22 27 29 32 34 36 35 34 34 34 35 38 40 40 41 40 39 37 35 33 34 25 26 33 31 38
3 3 4 3 4 7 5 6 9 5 6 11 14 19 16 4 8 31 39 41 39 38 35 35 37 35 37 36 39 41 42 42 44 45 42 41 37 34 28 28 24 26 28 31
5 3 3 3 2 8 7 7 2 8 16 23 24 28 23 25 30 34 40 43 40 38 40 41 41 41 41 40 40 43 46 49 48 47 45 42 37 33 32 27 25 23 24 28
6 7 5 9 7 7 23 24 37 26 21 32 25 27 22 27 31 34 37 40 41 40 44 43 42 45 47 45 43 47 51 52 51 52 49 45 44 34 30 30 26 25 23 26
6 14 10 13 15 19 34 35 30 36 37 35 29 22 28 28 35 33 36 39 37 41 41 42 45 48 49 49 50 51 52 53 55 55 54 50 43 43 33 29 30 29 27 27
9 5 7 13 19 25 30 32 34 30 26 21 28 29 28 27 37 33 37 43 46 46 45 41 40 42 53 55 57 56 57 57 57 59 55 52 47 39 38 33 33 33 33 31
15 17 11 15 28 24 26 28 19 22 26 25 25 33 36 28 34 32 40 43 42 46 48 43 41 44 51 48 56 61 59 56 54 54 56 51 47 43 36 38 37 34 34 32
Wind_Direction
171 129 199 227 198 148 192 232 248 258 267 311 275 269 265 268 279 271 272 272 276 275 285 287 286 283 279 275 272 268 263 256 246 238 236 236 237 235 234 233 233 232 232 230
48 222 229 79 149 222 246 270 272 284 269 246 274 280 276 254 253 259 267 275 274 280 286 294 296 295 291 286 280 273 266 257 251 244 239 237 237 236 235 233 231 229 230 229
199 227 193 191 242 249 204 225 259 252 315 255 296 279 227 265 242 255 265 266 278 281 291 298 303 305 305 298 291 282 276 266 251 247 240 236 234 236 232 230 229 227 227 228
235 270 224 145 225 203 262 232 251 269 353 255 48 300 184 227 244 224 251 267 278 288 296 301 313 319 318 316 308 295 275 264 252 245 241 239 238 235 235 233 232 229 227 227
245 170 161 183 221 148 235 194 246 167 200 304 160 240 209 164 238 246 251 259 295 298 306 316 318 319 318 317 314 302 280 262 250 245 243 241 239 240 239 236 232 229 227 226
247 317 193 215 220 189 58 61 45 42 104 283 177 168 285 153 206 256 243 297 304 297 306 321 344 342 332 320 310 298 282 265 254 247 243 242 241 238 236 234 233 230 228 228
215 215 240 189 254 88 140 81 306 320 83 244 162 179 258 260 269 227 275 280 287 289 315 351 4 1 352 337 317 288 277 269 257 248 244 241 240 240 240 237 234 231 228 227
207 288 187 171 200 205 191 170 191 243 269 275 145 237 261 241 259 266 275 272 290 312 352 8 353 347 345 338 331 316 287 270 257 250 247 245 241 240 239 238 236 236 234 232
200 261 231 185 228 173 196 184 211 261 266 286 270 272 298 278 276 296 262 286 330 331 344 337 334 335 331 332 336 328 315 290 272 263 255 248 241 238 234 234 235 237 237 236
294 298 197 213 120 210 192 268 274 351 234 254 233 252 260 289 307 312 294 330 342 332 324 325 320 313 323 326 334 333 331 311 290 273 264 255 250 244 237 233 234 235 236 237
12 259 276 184 193 245 215 223 217 271 226 252 257 241 257 270 290 301 310 291 305 317 316 316 320 327 320 328 333 339 335 320 308 288 273 262 255 247 241 238 235 237 238 238
256 259 265 270 266 200 182 237 247 249 247 251 264 259 256 285 299 308 308 317 318 325 13 7 2 340 332 331 329 326 326 323 321 305 286 271 260 252 247 242 239 238 238 239
118 223 271 300 280 86 208 247 246 261 265 255 258 268 256 305 313 309 322 8 8 1 358 1 2 1 357 351 342 326 322 320 316 313 300 284 271 258 250 248 245 241 239 239
282 235 241 261 277 324 288 304 319 310 290 296 283 304 321 305 349 348 342 10 13 12 7 2 358 356 356 356 355 351 344 340 326 312 304 292 286 285 282 270 259 252 248 245
12 271 283 289 292 294 300 292 286 277 279 273 286 287 312 22 345 343 357 13 11 3 358 353 351 348 344 343 343 347 351 349 344 332 309 292 289 280 272 265 262 255 248 247
342 284 333 289 289 295 290 284 277 275 276 277 285 284 18 27 5 3 14 5 357 350 345 341 338 339 341 341 337 339 340 344 346 340 331 306 290 280 278 269 263 257 252 252
234 221 129 275 289 314 289 260 260 265 339 341 295 8 329 2 346 338 316 339 343 341 336 335 329 329 332 338 336 336 334 337 339 340 339 329 299 277 270 269 263 258 255 253
231 148 142 263 49 218 243 53 69 109 104 76 74 296 291 289 309 313 308 315 325 326 330 328 324 323 327 332 335 332 328 330 333 334 336 341 334 307 282 265 259 261 257 253
216 225 253 235 212 263 293 29 14 63 281 215 248 295 275 292 293 302 330 328 318 317 315 320 322 324 325 329 330 330 331 330 329 333 333 338 341 337 315 293 278 264 255 250
44 206 234 2 237 241 234 239 279 119 263 224 210 257 252 272 293 302 319 324 313 316 316 317 320 319 322 327 329 330 331 330 329 325 325 329 330 332 336 321 294 271 257 252
9 358 184 247 250 287 238 260 307 90 249 306 316 309 260 230 256 301 308 313 311 313 314 314 311 311 317 321 324 326 326 325 323 322 319 316 318 319 322 328 312 282 265 250
165 168 231 66 43 285 196 343 172 271 296 296 279 290 256 263 289 294 301 306 307 308 310 312 312 311 312 314 316 318 318 322 322 320 318 316 310 309 309 309 313 299 273 257
254 204 211 185 222 257 286 277 283 291 288 292 287 280 255 284 284 291 295 299 303 303 306 306 306 306 307 308 309 310 312 315 316 315 314 309 307 300 298 301 295 288 279 264
248 238 246 263 261 255 267 275 281 286 286 286 285 270 289 285 292 291 296 297 295 299 299 302 302 301 301 303 305 305 307 308 308 308 308 308 304 301 294 287 286 277 269 258
251 215 231 250 266 273 268 268 277 286 288 286 292 295 293 294 295 297 295 296 297 297 297 296 293 291 295 297 297 300 301 302 302 303 304 303 301 299 294 285 278 278 273 264
243 250 246 257 270 269 277 289 289 294 297 296 297 298 302 300 295 294 290 292 292 293 296 294 290 288 290 291 293 295 297 299 300 298 297 297 297 293 286 283 279 272 275 271